2024/02/21 00:00:00,16.0, 1.9
2024/02/21 00:10:00,16.0, 1.9
2024/02/21 00:20:00,16.0, 1.8
2024/02/21 00:30:00,16.0, 1.8
2024/02/21 00:40:00,16.0, 1.8
2024/02/21 00:50:00,15.9, 1.9
2024/02/21 01:00:00,15.8, 1.8
2024/02/21 01:10:00,15.8, 1.5
2024/02/21 01:20:00,16.0, 1.7
2024/02/21 01:30:00,16.0, 1.6
2024/02/21 01:40:00,15.8, 1.6
2024/02/21 01:50:00,15.8, 2.0
2024/02/21 02:00:00,15.8, 1.7
2024/02/21 02:10:00,15.2, 1.6
2024/02/21 02:20:00,15.1, 1.5
2024/02/21 02:30:00,15.1, 1.5
2024/02/21 02:40:00,15.0, 1.5
2024/02/21 02:50:00,15.0, 1.7
2024/02/21 03:00:00,15.1, 1.8
2024/02/21 03:10:00,15.1, 1.5
2024/02/21 03:20:00,15.1, 1.6
2024/02/21 03:30:00,15.1, 1.4
2024/02/21 03:40:00,15.0, 1.4
2024/02/21 03:50:00,15.1, 1.6
2024/02/21 04:00:00,15.3, 1.6
2024/02/21 04:10:00,15.1, 1.6
2024/02/21 04:20:00,15.2, 1.4
2024/02/21 04:30:00,15.4, 1.7
2024/02/21 04:40:00,15.8, 1.4
2024/02/21 04:50:00,15.6, 1.5
2024/02/21 05:00:00,15.7, 1.4
2024/02/21 05:10:00,15.6, 1.4
2024/02/21 05:20:00,15.5, 1.6
2024/02/21 05:30:00,15.6, 1.5
2024/02/21 05:40:00,15.5, 1.4
2024/02/21 05:50:00,15.6, 1.4
2024/02/21 06:00:00,15.6, 1.4
2024/02/21 06:10:00,15.7, 1.4
2024/02/21 06:20:00,15.7, 1.2
2024/02/21 06:30:00,15.6, 1.2
2024/02/21 06:40:00,15.4, 1.3
2024/02/21 06:50:00,15.4, 1.4
2024/02/21 07:00:00,15.4, 1.4
2024/02/21 07:10:00,15.3, 1.4
2024/02/21 07:20:00,15.1, 1.4
2024/02/21 07:30:00,15.3, 1.4
2024/02/21 07:40:00,15.4, 1.4
2024/02/21 07:50:00,15.4, 2.5
2024/02/21 08:00:00,15.0, 1.6
2024/02/21 08:10:00,14.8, 1.3
2024/02/21 08:20:00,14.8, 1.4
2024/02/21 08:30:00,15.0, 1.6
2024/02/21 08:40:00,14.8, 1.6
2024/02/21 08:50:00,15.0, 1.7
2024/02/21 09:00:00,15.0, 1.3
2024/02/21 09:10:00,15.0, 1.9
2024/02/21 09:20:00,14.7, 2.0
2024/02/21 09:30:00,14.7, 1.6
2024/02/21 09:40:00,14.8, 2.2
2024/02/21 09:50:00,14.7, 1.9
2024/02/21 10:00:00,14.8, 1.8
2024/02/21 10:10:00,14.7, 2.1
2024/02/21 10:20:00,14.6, 2.0
2024/02/21 10:30:00,15.0, 2.2
2024/02/21 10:40:00,14.9, 2.3
2024/02/21 10:50:00,15.1, 2.0
2024/02/21 11:00:00,16.0, 2.3
2024/02/21 11:10:00,15.7, 2.5
2024/02/21 11:20:00,15.5, 2.4
2024/02/21 11:30:00,15.3, 2.4
2024/02/21 11:40:00,15.0, 2.5
2024/02/21 11:50:00,15.0, 2.3
2024/02/21 12:00:00,14.9, 2.2
2024/02/21 12:10:00,15.2, 2.5
2024/02/21 12:20:00,15.1, 2.8
2024/02/21 12:30:00,14.8, 2.7
2024/02/21 12:40:00,14.6, 2.9
2024/02/21 12:50:00,14.5, 2.9
2024/02/21 13:00:00,14.3, 2.9
2024/02/21 13:10:00,14.4, 3.2
2024/02/21 13:20:00,14.4, 3.1
2024/02/21 13:30:00,14.6, 3.3
2024/02/21 13:40:00,14.7, 3.3
2024/02/21 13:50:00,14.8, 3.2
2024/02/21 14:00:00,14.6, 3.8
2024/02/21 14:10:00,14.4, 3.3
2024/02/21 14:20:00,14.4, 3.2
2024/02/21 14:30:00,14.0, 2.9
2024/02/21 14:40:00,13.3, 2.8
2024/02/21 14:50:00,13.5, 2.7
2024/02/21 15:00:00,13.3, 2.9
2024/02/21 15:10:00,13.2, 2.8
2024/02/21 15:20:00,13.3, 2.8
2024/02/21 15:30:00,13.2, 2.8
2024/02/21 15:40:00,13.1, 2.5
2024/02/21 15:50:00,13.1, 2.5
2024/02/21 16:00:00,13.5, 2.5
2024/02/21 16:10:00,13.5, 2.6
2024/02/21 16:20:00,13.0, 2.5
2024/02/21 16:30:00,13.1, 2.4
2024/02/21 16:40:00,13.2, 2.5
2024/02/21 16:50:00,13.3, 2.5
2024/02/21 17:00:00,13.0, 2.3
2024/02/21 17:10:00,12.4, 2.2
2024/02/21 17:20:00,12.3, 2.1
2024/02/21 17:30:00,12.2, 2.1
2024/02/21 17:40:00,12.1, 1.9
2024/02/21 17:50:00,11.8, 2.4
2024/02/21 18:00:00,11.7, 2.0
2024/02/21 18:10:00,11.7, 1.8
2024/02/21 18:20:00,11.8, 1.8
2024/02/21 18:30:00,11.8, 1.7
2024/02/21 18:40:00,11.8, 1.8
2024/02/21 18:50:00,11.8, 1.7
2024/02/21 19:00:00,12.1, 1.8
2024/02/21 19:10:00,12.1, 1.8
2024/02/21 19:20:00,12.0, 1.4
2024/02/21 19:30:00,12.0, 1.8
2024/02/21 19:40:00,12.0, 1.6
2024/02/21 19:50:00,11.9, 1.5
2024/02/21 20:00:00,11.9, 1.4
2024/02/21 20:10:00,12.0, 1.4
2024/02/21 20:20:00,12.1, 1.2
2024/02/21 20:30:00,12.0, 1.4
2024/02/21 20:40:00,11.9, 1.4
2024/02/21 20:50:00,12.0, 1.4
2024/02/21 21:00:00,12.0, 1.2
2024/02/21 21:10:00,12.1, 1.4
2024/02/21 21:20:00,12.1, 1.4
2024/02/21 21:30:00,12.1, 1.2
2024/02/21 21:40:00,12.1, 1.5
2024/02/21 21:50:00,12.3, 1.4
2024/02/21 22:00:00,12.3, 1.4
2024/02/21 22:10:00,12.1, 1.1
2024/02/21 22:20:00,12.1, 1.4
2024/02/21 22:30:00,12.1, 1.1
2024/02/21 22:40:00,12.4, 1.1
2024/02/21 22:50:00,12.3, 1.0
2024/02/21 23:00:00,12.2, 1.1
2024/02/21 23:10:00,12.2, 1.1
2024/02/21 23:20:00,12.3, 1.0
2024/02/21 23:30:00,12.2, 1.2
2024/02/21 23:40:00,12.1, 0.7
2024/02/21 23:50:00,12.1, 1.6
